sat.trackr.live / text

‹ back to catalog

STARLINK-35175

NORAD 65929 · 2025-225V

PAYLOAD ACTIVE UNKNOWN

§ Identity

Operator
Country
US
Launch date
2025-10-08
Launch site
AFWTR
Launch vehicle
Mass (kg)
RCS (m²)

Purposes: comms

External: N2YO · Heavens-Above · Gunter

§ Orbital elements

Epoch: 2026-09-20T11:59:31.214976Z

Period
93.85 min
Inclination
53.1593°
Eccentricity
0.0001275
Mean motion
15.34401691 rev/d
Perigee alt
461.8 km
Apogee alt
463.6 km
Semi-major
6,840.8 km
B*
7.9983e-4
RAAN
339.4428°
Arg perigee
48.9042°
Mean anomaly
311.2071°
Rev number
5,425

§ Raw data

STARLINK-351751 65929U 25225V   26263.49966684  .00026745  00000+0  79983-3 0  99902 65929  53.1593 339.4428 0001275  48.9042 311.2071 15.34401691 54259

JSON: /api/v1/satellites/65929 · /tle

For live sub-satellite position, see the globe view (requires WebGL).

§ Visibility from observer

Set your observer location to see the next 7 days of passes ≥ 10°. The values pass through the URL so the page stays shareable.

No JS? Fill the form by hand. The geolocation button needs JavaScript.